TIROS 6 DEB, 29006

Orbit data source: Space-Track

TIROS 6 DEB, 29006 is space debris in LEO originally from a launch on Tue, 18 Sep 1962 UTC launched from the Air Force Eastern Test Range (AFETR). Debris objects in space refer to the collection of defunct objects orbiting the Earth. Examples of debris include non-operational satellites, rocket bodies, and fragments generated from explosions, collisions, or faulty payload assembly.

Loading next visibility...
Identifier
29006, 1962-047F
Orbit
LEO
Country
Flag of USUS
Related business
Manufacturer
Unknown
Mission
Spacecraft
Bus & Motor
Unknown
Mass
Unknown
Launch date (UTC)
1962-09-18 (63 years ago)
Launch vehicle
Unknown
Launch site
Air Force Eastern Test Range (AFETR)
Object type
Payload
Rocket body
Debris
Shape & HBR
Unknown
Radar Cross Section
Small (<0.1 m²)

Expand to show TLE details & history
Last TLE update: 1 day ago

TLE from 1 day ago
0 TIROS 6 DEB
1 29006U 62047F   25242.15852777  .00001215  00000-0  16480-3 0  9994
2 29006  58.3095  45.6511 0006274   3.2851 356.8233 14.85233555658380
Epoch: 2025-08-30T03:48Z
TLE epoch observation values (Epoch: 2025-08-30T03:48:16.799Z)
Latitude
0.00005°
Longitude
9.9843°
Altitude
609.881 km
Speed
7.558 km/s
True Right ascension
03h 02m 36s
True Declination
0° 00' 00"
Sunlit
Object was in daylight at epoch
Visualization orbit readout
Latitude
Unknown
Longitude
Unknown
Altitude
Unknown
Speed
Unknown
Apparent Right ascension
Unknown
Apparent Declination
Unknown
Sunlit
N/A
Visualization observer readout
Local Sidereal Time
22:56:40
Azimuth
Unknown
Elevation
Unknown
Doppler factor
Unknown
Orbital elements
Apogee altitude
616.701 km
Perigee altitude
607.929 km
Semi-major axis
6,990.452 km
Eccentricity
0.00063
Inclination
58.3095°
RAAN
45.6511°
Arg. of periapsis
3.2851°
True anomaly
356.81931°
Mean anomaly
356.8233°
Eccentric anomaly
356.82131°
Mean motion
3.71352 °/min
Orbital period
96.94 mins
BSTAR
0.0001648
Loading maneuver chart data...
Computing Atmospheric mass density...
Loading historical data...
Loading historical data...
Loading historical data...
Loading historical data...
Loading historical data...
Loading historical data...
Loading historical data...

Documentation

Showing up to 5 results
|